Temp
1 1 0 -0 -0 -0 -0 -1 -1 -1 -1 -2 -2 -2 -2 -3 -3 -3 -4 -5 -5 -6 -6 -6 -6 -5 -5 -5 -5 -4 -4 -3 -2 -2 -3 -4 -4 -4 -3 -3 -2 -1 -1
1 1 0 -0 -0 -0 -1 -2 -2 -2 -2 -3 -3 -3 -4 -4 -4 -5 -6 -6 -6 -7 -7 -7 -7 -6 -6 -6 -6 -6 -5 -5 -4 -4 -4 -5 -6 -6 -6 -5 -4 -2 -2
1 1 -0 -1 -1 -1 -2 -2 -2 -3 -3 -4 -4 -4 -5 -5 -5 -6 -7 -7 -7 -7 -7 -7 -7 -7 -7 -7 -7 -7 -7 -7 -6 -6 -6 -7 -7 -8 -7 -6 -5 -3 -4
1 0 -0 -1 -1 -2 -3 -3 -3 -3 -4 -4 -5 -5 -6 -6 -6 -7 -7 -7 -8 -8 -8 -8 -8 -7 -8 -7 -8 -8 -8 -8 -8 -7 -7 -8 -8 -9 -8 -8 -7 -6 -5
1 0 -1 -1 -2 -3 -3 -4 -4 -4 -5 -5 -5 -6 -6 -7 -7 -7 -8 -8 -8 -8 -8 -8 -8 -8 -8 -8 -8 -9 -9 -9 -9 -8 -8 -8 -10 -10 -10 -10 -9 -8 -6
-0 -1 -2 -2 -3 -3 -4 -5 -5 -5 -6 -6 -6 -6 -7 -8 -8 -8 -8 -9 -9 -9 -8 -9 -9 -10 -10 -10 -10 -9 -10 -11 -10 -10 -10 -10 -10 -12 -12 -11 -10 -8 -5
-1 -2 -2 -3 -3 -4 -5 -6 -6 -6 -6 -7 -7 -7 -8 -8 -8 -9 -8 -8 -9 -9 -10 -10 -10 -10 -11 -11 -12 -13 -12 -11 -11 -12 -12 -12 -12 -13 -13 -12 -11 -10 -9
-2 -2 -3 -3 -4 -5 -6 -6 -7 -7 -7 -7 -7 -8 -8 -8 -8 -9 -9 -9 -9 -9 -10 -10 -11 -11 -12 -12 -13 -13 -13 -13 -13 -13 -13 -13 -13 -13 -14 -13 -12 -10 -10
-3 -3 -4 -4 -5 -6 -6 -7 -7 -7 -8 -8 -8 -8 -9 -9 -9 -9 -9 -9 -9 -10 -10 -10 -10 -11 -12 -13 -12 -13 -13 -14 -14 -15 -15 -15 -15 -14 -15 -14 -14 -12 -12
-3 -4 -3 -4 -5 -6 -7 -7 -8 -8 -8 -8 -9 -9 -9 -9 -9 -9 -9 -9 -10 -10 -10 -10 -10 -10 -11 -13 -13 -13 -13 -14 -13 -13 -13 -13 -13 -14 -16 -15 -15 -15 -15
-4 -3 -4 -5 -5 -6 -7 -8 -8 -8 -8 -9 -9 -9 -9 -9 -9 -9 -10 -10 -10 -11 -12 -11 -11 -11 -12 -13 -14 -14 -15 -14 -14 -15 -15 -15 -15 -15 -15 -15 -15 -16 -16
-3 -4 -5 -5 -7 -8 -8 -8 -8 -8 -9 -9 -9 -9 -9 -9 -9 -9 -10 -11 -11 -12 -13 -13 -13 -13 -13 -14 -15 -16 -14 -14 -14 -15 -16 -17 -17 -17 -16 -16 -15 -15 -16
-4 -5 -6 -7 -8 -8 -8 -9 -9 -9 -9 -10 -9 -9 -9 -9 -9 -9 -10 -11 -12 -13 -13 -14 -15 -15 -14 -15 -16 -15 -14 -15 -15 -16 -17 -17 -17 -17 -17 -17 -17 -16 -17
-5 -6 -6 -7 -8 -8 -8 -8 -9 -9 -10 -10 -10 -10 -9 -9 -10 -10 -11 -11 -12 -12 -13 -14 -14 -14 -14 -15 -15 -15 -16 -16 -17 -17 -17 -16 -16 -16 -17 -18 -18 -18 -17
-6 -6 -7 -7 -7 -8 -8 -8 -8 -8 -8 -9 -10 -9 -10 -10 -10 -11 -11 -12 -12 -13 -13 -13 -13 -13 -14 -14 -15 -15 -15 -15 -16 -17 -17 -17 -17 -17 -17 -17 -18 -18 -18
-6 -6 -6 -7 -8 -8 -8 -9 -8 -8 -9 -9 -10 -9 -10 -10 -11 -11 -12 -13 -14 -13 -13 -14 -15 -15 -16 -16 -17 -17 -17 -18 -18 -18 -18 -18 -18 -18 -18 -18 -19 -20 -19
-6 -6 -7 -8 -8 -9 -9 -9 -10 -10 -10 -10 -10 -10 -10 -9 -10 -11 -12 -14 -15 -13 -14 -15 -16 -17 -17 -17 -18 -18 -18 -18 -18 -18 -19 -19 -19 -19 -19 -20 -20 -20 -20
-6 -7 -7 -8 -8 -8 -9 -9 -10 -10 -10 -10 -10 -10 -10 -10 -11 -11 -13 -14 -14 -15 -15 -16 -16 -17 -17 -17 -18 -19 -19 -19 -19 -19 -19 -20 -19 -19 -19 -20 -20 -21 -20
-7 -7 -7 -7 -8 -8 -9 -9 -10 -10 -10 -10 -10 -10 -10 -11 -12 -13 -14 -14 -14 -15 -16 -16 -16 -17 -17 -18 -19 -19 -19 -19 -19 -19 -19 -20 -19 -19 -19 -20 -20 -20 -20
-7 -7 -6 -7 -8 -9 -9 -9 -10 -10 -10 -10 -10 -10 -12 -12 -12 -13 -14 -14 -15 -15 -16 -16 -17 -17 -17 -18 -18 -19 -19 -19 -19 -19 -19 -19 -20 -20 -20 -20 -20 -21 -20
-6 -6 -6 -7 -8 -8 -9 -9 -10 -10 -10 -10 -11 -11 -11 -11 -12 -13 -14 -15 -16 -16 -16 -17 -17 -17 -18 -18 -19 -19 -20 -20 -20 -20 -20 -20 -20 -20 -20 -20 -20 -20 -21
-6 -7 -7 -8 -8 -9 -9 -9 -10 -10 -10 -11 -11 -11 -12 -12 -13 -14 -15 -15 -16 -17 -17 -17 -18 -18 -18 -19 -19 -19 -20 -20 -20 -20 -20 -20 -20 -21 -21 -20 -20 -20 -21
-6 -7 -8 -8 -8 -8 -9 -9 -9 -10 -10 -10 -11 -12 -13 -13 -13 -14 -15 -16 -16 -17 -17 -18 -18 -19 -19 -19 -19 -20 -20 -20 -20 -21 -21 -21 -21 -21 -21 -21 -21 -21 -22
-6 -7 -7 -7 -8 -8 -8 -9 -9 -9 -10 -11 -11 -12 -12 -13 -14 -14 -15 -16 -17 -17 -18 -18 -18 -19 -19 -19 -20 -20 -20 -20 -20 -21 -22 -22 -22 -22 -22 -22 -22 -22 -21
-6 -6 -6 -7 -7 -8 -8 -8 -9 -9 -10 -11 -11 -12 -13 -14 -14 -15 -16 -16 -17 -18 -18 -18 -19 -19 -19 -19 -20 -20 -20 -20 -21 -22 -22 -22 -22 -22 -22 -22 -22 -22 -21
-6 -6 -7 -7 -8 -8 -8 -9 -9 -10 -10 -11 -11 -12 -13 -13 -14 -15 -16 -17 -17 -18 -18 -19 -19 -19 -20 -20 -20 -20 -20 -20 -20 -22 -23 -23 -23 -23 -23 -23 -22 -22 -22
Height
811 813 814 816 818 817 818 820 821 822 824 824 825 826 824 823 822 820 823 824 822 820 820 817 813 812 811 808 805 803 799 797 794 789 786 782 778 773 769 766 769 771 768
812 814 816 817 817 815 818 820 823 821 825 822 827 828 825 825 824 823 825 824 824 823 821 818 816 814 812 810 808 804 799 798 796 792 788 784 781 778 775 772 771 770 770
808 811 814 818 818 818 819 821 824 824 826 824 827 830 831 828 827 826 826 825 827 826 822 820 819 816 814 813 809 805 802 801 799 796 792 787 783 778 774 773 772 770 770
804 808 813 814 816 820 823 823 826 824 826 826 830 832 835 831 827 826 828 828 828 827 825 823 822 819 817 815 812 807 805 803 802 798 797 793 788 784 780 776 771 770 769
798 803 810 812 815 818 821 827 825 825 825 829 831 834 838 833 827 826 831 831 830 828 827 826 824 823 821 818 815 811 808 807 805 804 804 799 793 787 784 782 778 772 771
795 800 807 812 814 818 822 825 825 827 828 831 834 835 838 833 827 829 834 833 830 830 830 829 827 825 824 821 819 817 815 812 811 809 808 804 801 798 793 790 784 780 778
793 800 806 806 814 816 820 824 823 826 832 833 836 839 836 833 828 833 837 835 833 833 833 833 830 828 826 824 822 819 818 817 817 814 813 810 807 803 798 793 790 790 790
790 796 803 806 809 815 821 822 824 826 832 834 837 841 837 833 833 837 839 837 837 837 837 836 834 832 830 828 826 823 820 818 819 818 816 813 810 808 802 799 794 790 790
787 795 801 806 808 814 817 823 825 825 832 836 839 841 837 835 838 840 841 839 840 840 840 839 838 836 835 832 829 827 826 824 823 822 820 817 814 812 808 803 796 792 791
786 792 799 806 808 814 813 823 826 826 832 838 842 841 836 839 841 843 843 841 842 842 843 842 842 840 839 836 831 830 828 829 827 825 822 819 816 814 812 809 803 800 798
785 793 799 805 811 813 816 820 825 828 833 838 843 840 838 841 843 846 845 844 844 845 845 845 844 844 842 840 837 835 834 833 830 827 824 823 820 818 815 811 808 805 803
784 791 796 801 811 819 816 821 824 829 835 838 842 838 840 842 845 847 847 846 846 846 846 846 846 846 845 843 841 839 837 834 831 828 826 824 821 820 816 813 810 808 807
782 789 794 802 812 815 817 820 825 832 835 837 839 839 842 844 845 848 849 849 848 847 847 848 847 845 845 844 843 841 838 834 831 828 828 827 825 821 817 813 811 809 808
785 793 800 806 806 813 817 822 827 831 834 837 838 840 843 844 846 847 848 848 849 848 848 847 847 847 846 845 844 842 839 837 834 833 832 829 826 821 818 815 811 807 805
786 793 799 807 806 811 817 821 826 830 833 835 837 841 843 845 847 848 848 849 849 849 849 849 848 847 846 845 844 843 841 839 836 835 833 830 827 824 820 817 814 811 809
786 793 797 803 807 811 817 820 826 831 834 836 839 842 843 845 847 848 850 851 850 850 850 849 848 848 848 847 846 845 843 841 840 838 835 832 829 826 824 821 819 816 813
784 791 796 802 807 811 815 818 824 833 836 838 841 843 844 846 848 850 851 851 851 850 850 850 849 850 849 848 848 846 844 843 842 840 839 837 834 831 828 825 822 819 814
784 789 794 800 805 810 813 817 822 828 834 837 841 843 845 847 848 850 851 851 851 851 850 850 850 850 849 849 849 848 847 846 844 843 841 839 836 833 831 828 825 822 818
784 789 793 799 804 809 813 817 822 827 833 836 839 842 844 846 848 849 850 850 850 850 850 850 850 850 850 849 849 848 847 846 845 844 842 840 837 834 832 830 827 823 820
784 788 793 798 803 808 813 817 821 826 831 835 838 840 842 843 845 846 848 849 849 849 849 849 849 850 849 849 849 849 848 847 845 844 842 839 837 835 832 830 826 824 821
783 788 792 797 802 806 811 815 820 825 829 833 836 838 840 841 843 845 846 847 848 848 848 848 848 849 849 848 848 848 847 846 844 842 840 838 836 834 832 829 827 824 821
783 787 792 796 801 806 809 814 818 823 827 831 834 836 838 840 841 843 844 845 846 847 847 847 847 847 847 847 847 846 845 844 842 840 839 837 835 833 831 828 825 822 819
783 787 792 796 800 804 808 812 816 820 824 827 831 833 835 837 839 840 842 843 844 845 845 845 845 846 845 845 845 844 843 841 840 838 836 835 833 831 829 827 824 821 818
782 786 790 794 798 802 807 811 815 818 821 824 828 830 833 835 837 838 840 841 842 842 843 843 843 844 844 844 843 842 841 840 838 836 834 833 831 830 828 825 823 820 817
782 786 790 793 797 801 806 810 813 816 819 822 825 828 830 832 834 836 837 839 840 840 840 841 841 841 841 841 841 840 839 838 836 834 832 831 830 828 826 823 821 818 815
782 786 789 793 797 801 805 808 811 814 817 820 822 825 828 830 832 833 834 836 836 837 837 838 838 838 838 838 838 837 836 834 833 831 830 829 827 826 824 821 818 816 813
Wind_Speed
18 17 17 16 14 12 12 11 9 8 8 7 7 7 9 10 10 10 10 10 13 14 12 14 14 13 13 13 12 11 13 13 7 7 13 20 21 26 23 21 15 12 17
19 18 16 15 15 14 12 10 7 8 7 9 8 8 9 10 12 10 10 11 14 16 16 16 18 13 14 16 15 16 16 13 10 11 11 19 20 23 20 18 14 11 17
21 20 17 16 14 13 12 9 7 7 8 11 11 10 8 10 11 12 12 13 13 15 17 16 17 17 15 17 17 16 17 12 14 10 12 17 17 30 24 21 15 12 14
23 21 19 18 15 12 10 8 6 8 9 10 10 9 7 9 11 12 12 13 12 14 15 16 17 18 17 14 17 18 15 14 14 14 15 16 18 23 17 24 24 17 14
26 25 21 18 16 14 11 8 7 8 9 10 11 8 6 10 11 12 11 11 11 15 15 15 14 16 17 17 19 22 18 16 16 14 14 15 24 25 25 24 20 19 3
29 26 23 20 17 14 11 10 9 9 10 10 9 9 9 11 15 15 13 15 15 14 13 15 14 13 13 18 17 21 22 20 19 16 16 20 23 24 20 21 21 17 6
29 26 24 23 19 16 14 13 13 12 11 12 12 11 12 15 16 14 14 18 20 21 20 16 16 15 13 13 16 17 20 21 20 19 18 20 22 25 20 20 21 13 8
28 28 27 24 21 18 17 16 16 15 14 14 12 11 14 16 14 12 13 17 19 20 21 21 23 22 18 13 15 20 21 24 21 19 22 19 23 24 20 15 16 8 3
29 28 27 25 24 22 22 20 20 19 16 15 14 13 15 16 12 12 13 17 20 19 17 20 21 22 19 18 20 21 22 23 19 18 18 19 18 22 25 21 24 18 6
29 30 28 25 25 25 25 22 20 18 18 15 15 15 17 16 13 12 11 14 16 17 19 21 18 18 18 19 23 22 23 20 20 22 23 23 25 26 24 26 28 21 10
30 30 27 24 25 26 26 23 21 19 17 16 15 14 15 15 13 11 11 12 15 17 17 16 18 17 16 18 19 21 18 17 20 23 26 26 26 26 27 25 21 24 20
32 29 27 27 27 27 26 23 19 17 17 17 16 16 14 13 12 12 11 12 12 15 15 14 14 14 17 16 18 17 19 21 23 26 28 28 28 27 25 25 20 17 19
32 30 30 30 28 28 27 23 20 17 17 16 15 13 11 11 13 12 11 12 11 13 13 13 14 14 14 17 18 19 22 25 26 29 28 26 24 24 26 26 26 17 13
28 28 28 25 28 26 24 23 21 19 18 17 16 15 12 12 10 8 8 8 7 8 9 11 13 15 17 19 21 22 23 24 26 25 24 24 26 29 30 29 27 28 16
27 26 24 24 23 25 24 25 20 16 14 17 16 14 13 13 9 6 5 8 7 8 9 10 12 13 16 18 20 22 22 23 24 24 24 25 27 29 30 31 30 27 18
26 23 24 23 23 25 23 18 15 12 12 13 13 13 10 12 13 13 11 8 7 4 6 11 14 14 15 15 18 19 20 21 21 21 23 24 25 27 27 27 24 21 18
25 24 23 23 24 23 22 23 21 14 15 13 11 9 11 14 11 9 8 7 6 3 8 10 11 11 12 12 13 16 17 17 16 18 18 19 20 21 22 22 23 23 23
26 25 25 26 25 24 24 24 25 23 21 17 12 11 12 10 9 8 7 7 4 6 7 8 9 9 9 9 9 12 13 13 14 14 16 17 18 19 20 19 19 21 20
28 27 29 27 26 25 25 26 25 24 23 18 16 13 15 11 9 7 7 6 6 6 5 5 6 6 6 6 7 8 11 12 12 12 13 14 16 18 18 19 19 23 18
25 27 28 26 25 25 25 26 24 25 22 19 16 20 20 15 8 4 5 6 6 4 4 3 2 3 4 5 5 6 8 10 11 11 12 13 14 15 16 18 19 17 18
24 25 25 26 26 26 26 25 25 24 23 19 18 20 20 14 8 6 6 6 5 4 3 3 1 2 3 4 4 5 7 10 11 12 12 13 15 16 16 17 18 19 17
24 24 25 25 24 24 24 24 24 24 23 22 19 17 17 13 10 9 8 7 5 4 3 3 2 3 4 4 5 6 8 11 12 12 12 12 14 15 16 18 19 21 20
22 22 22 22 23 23 22 22 22 23 23 22 20 19 18 15 12 11 9 8 6 4 4 4 4 5 6 6 7 7 9 12 14 14 13 13 15 16 16 18 19 20 19
21 23 23 22 21 21 22 21 21 20 19 21 21 19 17 15 13 10 10 9 6 5 5 5 6 7 8 8 8 8 10 13 14 14 13 14 15 16 16 17 18 19 20
21 22 20 20 20 20 20 19 18 18 18 19 20 18 16 14 13 12 10 9 8 6 6 6 8 9 9 8 9 10 12 14 14 12 12 13 14 14 15 17 18 19 18
18 18 17 18 19 18 19 18 18 17 17 17 17 17 16 15 13 12 12 11 9 8 8 8 9 10 10 9 10 12 13 14 13 9 11 13 14 14 16 18 16 17 17
Wind_Direction
157 149 142 138 135 125 112 106 88 66 57 71 76 71 63 51 47 48 45 44 49 47 40 40 40 34 29 28 29 31 32 13 320 333 357 2 6 5 14 22 27 35 24
163 152 144 142 137 127 122 108 91 77 74 81 75 70 70 53 48 61 63 61 55 45 41 43 36 30 31 32 28 27 29 20 3 348 352 5 5 5 7 13 20 42 28
164 159 153 149 138 131 128 118 95 79 83 95 87 77 66 61 66 70 71 67 61 50 43 45 37 34 32 28 26 26 25 22 23 17 4 5 4 7 10 22 23 48 35
166 164 162 154 144 141 137 120 108 91 103 100 93 78 58 74 78 73 68 67 66 58 47 47 42 41 37 31 29 29 26 27 23 30 20 10 12 6 11 7 5 25 17
168 165 164 157 151 149 143 142 121 110 109 113 101 87 84 68 67 72 70 70 66 60 51 46 45 47 44 45 40 37 34 34 31 31 23 20 15 7 5 351 357 351 338
166 164 164 160 153 153 152 145 126 118 118 126 105 114 97 76 78 75 80 74 67 64 53 48 43 47 48 49 53 50 45 44 38 34 28 25 19 8 359 356 2 6 360
164 168 169 162 161 156 157 151 133 125 128 126 121 114 93 86 83 83 88 83 77 70 64 57 51 47 50 49 52 58 57 51 48 45 39 30 21 10 0 360 7 5 39
165 168 172 167 161 159 157 143 134 132 129 123 123 119 98 86 86 91 97 91 87 79 69 62 58 55 50 58 59 62 62 59 45 45 43 38 31 19 18 6 359 6 60
162 165 170 173 163 159 149 143 138 132 125 120 119 118 103 90 91 98 105 99 90 84 82 64 61 57 53 59 70 69 68 62 57 53 51 45 43 33 28 34 26 26 18
163 168 174 175 168 159 147 147 140 134 128 132 128 122 107 100 92 100 107 106 100 92 83 73 59 59 54 50 60 59 61 53 59 63 61 59 56 51 42 46 42 36 18
165 169 172 172 166 156 149 147 145 139 138 137 138 131 119 115 105 100 107 102 103 96 86 76 67 59 59 56 56 54 55 65 60 57 54 51 51 50 49 48 52 45 43
166 164 165 165 160 161 150 149 143 147 155 147 144 126 119 111 119 107 98 102 97 97 94 88 76 73 64 61 59 58 64 62 58 53 49 42 41 40 41 42 50 56 48
158 160 162 161 161 164 157 150 147 155 153 152 150 135 128 124 119 113 108 108 101 94 91 87 84 81 82 77 58 58 56 53 51 47 43 39 38 37 37 39 34 50 42
148 153 154 156 156 162 165 163 161 159 155 151 144 136 137 134 140 144 128 119 112 99 95 94 90 84 79 73 65 58 55 52 50 46 42 39 38 37 35 31 22 21 22
148 151 154 155 152 158 170 179 175 173 172 161 156 150 154 150 141 131 137 130 114 102 105 105 95 81 72 64 57 52 48 45 44 40 38 36 34 34 33 29 24 20 18
149 152 153 153 154 162 164 157 179 172 162 158 156 154 136 157 146 132 113 115 112 105 109 90 80 72 67 59 52 47 44 42 39 37 35 34 31 29 25 24 19 14 5
150 152 153 157 161 158 155 148 139 148 152 153 149 147 136 133 141 135 127 119 120 118 112 93 85 76 67 60 52 43 40 37 35 35 32 31 28 28 24 19 15 10 2
155 159 160 163 165 163 160 157 153 156 162 160 160 165 156 145 144 146 149 156 128 120 109 97 85 71 61 56 55 44 39 36 36 34 31 27 25 22 18 14 10 4 356
160 165 172 173 175 174 170 165 166 169 171 166 160 161 154 143 139 150 196 222 192 159 136 108 80 66 59 51 51 39 29 27 27 27 25 21 16 14 14 10 4 6 357
171 177 177 177 175 172 173 171 172 175 179 183 183 172 168 173 171 192 194 189 188 179 162 144 106 60 46 36 30 21 17 16 15 15 15 15 11 8 4 1 1 353 352
175 179 185 181 178 180 180 179 181 185 188 187 186 189 198 206 212 210 205 197 200 195 195 193 215 4 18 12 1 355 360 3 3 2 360 1 1 360 359 357 355 353 347
183 183 182 182 184 184 187 188 191 196 201 199 196 198 207 218 223 214 208 208 210 209 213 227 250 298 326 338 338 335 341 348 350 348 347 347 350 350 349 349 350 349 349
188 184 180 184 189 192 191 196 199 204 207 206 203 201 204 210 216 217 218 216 225 232 241 249 265 291 305 314 323 322 330 337 339 336 335 338 340 341 340 341 343 343 340
189 189 188 187 187 190 194 197 202 208 208 206 203 206 208 208 213 218 222 225 235 252 261 261 269 283 291 298 309 311 318 323 325 324 321 326 331 332 332 333 334 335 334
188 185 186 188 190 193 194 198 200 203 206 206 206 207 206 207 214 220 224 229 241 261 267 270 276 282 289 293 302 303 309 315 317 312 312 318 323 327 327 327 328 329 330
183 187 189 189 189 190 193 197 200 202 205 208 211 211 213 217 221 223 225 232 245 260 268 277 281 282 288 292 297 301 311 315 316 304 305 312 318 321 324 325 324 327 328